Location: Demmingen
(48.6757°N, 10.4375°E)
Time: 12:55:36
(UTC+00:00)

CZ-2C R/B - Pass Details

Date: 12 August 2024
Orbit: 782 x 869 km, 98.3° (Epoch: 15 September)

Event Time Altitude Azimuth Distance (km) Brightness Sun altitude
Exits shadow 00:11:13 21° 116° (ESE) 1,808 4.3 -25.6°
Maximum altitude 00:14:09 36° 65° (ENE) 1,310 3.9 -25.5°
Drops below altitude 10° 00:19:03 10° 0° (N) 2,450 6.1 -25.3°
Sets 00:21:33 0° 353° (N) 3,374 6.9 -25.1°
